Chicopee, MA

3:31 AM EDT on July 27, 2017 (GMT -0400)
Westover Air Reserve Base / Metropolitan Airport

Weather History for KCEF - December, 2011

Change the Weather History Date:

Wednesday, December 28, 2011

  Actual Average Record
Temperature  
Mean Temperature 42 °F -  
Max Temperature 57 °F 33 °F 57 °F (2008)
Min Temperature 26 °F 19 °F -2 °F (2004)
Degree Days  
Heating Degree Days 23    
Moisture  
Dew Point 37 °F    
Average Humidity 76    
Maximum Humidity 94    
Minimum Humidity 57    
Precipitation  
Precipitation 0.00 in - - ()
Sea Level Pressure  
Sea Level Pressure 29.38 in    
Wind  
Wind Speed 14 mph (WSW)    
Max Wind Speed 25 mph    
Max Gust Speed 39 mph    
Visibility 10 miles    
Events      
Averages and records for this station are not official NWS values.
T = Trace of Precipitation, MM = Missing Value Source: NWS Daily Summary

Daily Weather History Graph

Daily Weather History Graph

Search for Another Location

Airport or City:

Trip Planner

Search our weather history database for the weather conditions in past years. The results will help you decide how hot, cold, wet, or windy it might be!

Date:

Astronomy

Dec. 28, 2011 Rise Set
Actual Time 7:18 AM EST 4:25 PM EST
Civil Twilight 6:46 AM EST 4:57 PM EST
Nautical Twilight 6:10 AM EST 5:32 PM EST
Astronomical Twilight 5:36 AM EST 6:06 PM EST
Moon 9:38 AM EST (12/28) 9:03 PM EST (12/28)
Length of Visible Light 10h 10m
Length of Day
9h 07m
Waxing Crescent, 18% of the Moon is Illuminated
Dec 28
Waxing Crescent
Jan 1
First Quarter
Jan 9
Full
Jan 16
Last Quarter
Jan 23
New

Hourly Weather History & Observations

Time (EST) Temp. Windchill Dew Point Humidity Pressure Visibility Wind Dir Wind Speed Gust Speed Precip Events Conditions
12:02 AM 57.2 °F - 53.6 °F 88% 29.26 in 10.0 mi South 15.0 mph - N/A   Overcast
12:31 AM 55.4 °F - 53.6 °F 94% 29.27 in 10.0 mi South 11.5 mph - N/A   Overcast
12:55 AM 55.0 °F - 52.7 °F 92% 29.27 in 10.0 mi South 10.4 mph - N/A   Overcast
1:29 AM 53.6 °F - 51.8 °F 94% 29.28 in 10.0 mi SSW 17.3 mph - N/A   Overcast
1:33 AM 53.6 °F - 50.0 °F 88% 29.28 in 10.0 mi SSW 15.0 mph - N/A   Mostly Cloudy
1:37 AM 53.6 °F - 51.8 °F 94% 29.28 in 10.0 mi SSW 15.0 mph - N/A   Mostly Cloudy
1:40 AM 53.6 °F - 51.8 °F 94% 29.28 in 10.0 mi SSW 12.7 mph - N/A   Mostly Cloudy
1:44 AM 53.6 °F - 50.0 °F 88% 29.28 in 10.0 mi SW 17.3 mph 24.2 mph N/A   Overcast
1:47 AM 53.6 °F - 48.2 °F 82% 29.28 in 10.0 mi SW 25.3 mph 29.9 mph N/A   Mostly Cloudy
1:49 AM 51.8 °F - 46.4 °F 82% 29.28 in 10.0 mi SW 20.7 mph 29.9 mph N/A   Mostly Cloudy
1:55 AM 51.8 °F - 44.8 °F 77% 29.29 in 10.0 mi SW 18.4 mph 29.9 mph N/A   Mostly Cloudy
2:48 AM 50.0 °F - 44.6 °F 82% 29.29 in 10.0 mi SW 8.1 mph - N/A   Mostly Cloudy
2:55 AM 49.6 °F - 43.7 °F 80% 29.29 in 10.0 mi WSW 9.2 mph - N/A   Overcast
3:14 AM 48.2 °F - 39.2 °F 71% 29.29 in 10.0 mi West 13.8 mph - N/A   Overcast
3:55 AM 46.8 °F - 39.2 °F 75% 29.30 in 10.0 mi SW 10.4 mph - N/A   Overcast
4:55 AM 45.0 °F 39.7 °F 38.7 °F 79% 29.31 in 10.0 mi SW 10.4 mph - N/A   Overcast
5:55 AM 44.2 °F 38.8 °F 38.1 °F 79% 29.32 in 10.0 mi SW 10.4 mph - N/A   Overcast
6:32 AM 44.6 °F 39.7 °F 37.4 °F 76% 29.33 in 10.0 mi SW 9.2 mph - N/A   Overcast
6:55 AM 44.4 °F 38.2 °F 36.5 °F 74% 29.34 in 10.0 mi West 12.7 mph 20.7 mph N/A   Overcast
6:56 AM 44.6 °F 38.1 °F 35.6 °F 71% 29.34 in 10.0 mi West 13.8 mph 20.7 mph N/A   Overcast
7:55 AM 43.3 °F 39.9 °F 33.6 °F 69% 29.36 in 10.0 mi West 5.8 mph - N/A   Overcast
8:55 AM 43.3 °F 36.8 °F 32.4 °F 65% 29.37 in 10.0 mi WNW 12.7 mph - N/A   Overcast
9:55 AM 43.5 °F 36.7 °F 30.7 °F 61% 29.38 in 10.0 mi West 13.8 mph 24.2 mph N/A   Overcast
10:55 AM 43.7 °F 36.0 °F 30.7 °F 60% 29.38 in 10.0 mi West 17.3 mph 23.0 mph N/A   Overcast
6:55 PM 28.2 °F 13.9 °F 14.7 °F 57% 29.63 in 10.0 mi WNW 24.2 mph 31.1 mph N/A   Scattered Clouds
7:55 PM 27.3 °F 13.0 °F 14.0 °F 57% 29.65 in 10.0 mi West 23.0 mph 39.1 mph N/A   Clear
8:55 PM 27.7 °F 15.2 °F 14.7 °F 58% 29.68 in 10.0 mi WNW 17.3 mph 35.7 mph N/A   Mostly Cloudy
9:55 PM 27.9 °F 14.7 °F 16.0 °F 61% 29.69 in 10.0 mi WNW 19.6 mph 38.0 mph N/A   Overcast
10:55 PM 27.7 °F 16.1 °F 15.8 °F 61% 29.72 in 10.0 mi WNW 15.0 mph - N/A   Overcast
11:55 PM 26.4 °F 14.0 °F 13.3 °F 58% 29.73 in 10.0 mi WNW 16.1 mph 20.7 mph N/A   Partly Cloudy